Flag for Canada Weather past 2 weeks in Peterborough, Ontario, Canada

Now
61 °F

Partly sunny.


Feels Like: 61 °F
Forecast: 42 / 71 °F
Wind: 8 mph from South

Location: Peterborough Airport

Current Time: Sep 20, 2014 at 2:08:02 PM

Latest Report: Sep 20, 2014 at 9:00 AM


Visibility: 9 mi

Pressure: 30.01 "Hg

Humidity: 88%

Dew point: 57 °F

Location of PeterboroughLocation

Historic Weather in Peterborough — Graph

°F

Peterborough temperature yesterday

Maximum temperature yesterday: 55 °F (at 2:00 PM)
Minimum temperature yesterday: 34 °F (at 5:00 AM)
Average temperature yesterday: 44 °F

Past Weeks' High & Low Weather Summary

 TemperatureHumidityPressure
High84 °F (Sep 5, 4:00 PM)100% (Sep 8, 12:00 AM)30.39 "Hg (Sep 8, 12:00 AM)
Low32 °F (Sep 14, 6:47 AM)33% (Sep 8, 4:00 PM)29.51 "Hg (Sep 11, 4:02 AM)
Average55 °F83%30.09 "Hg
* Reported Sep 5 9:00 AM — Sep 20 9:00 AM, Peterborough, Weather by CustomWeather, © 2014

Note: Actual official high and low records may vary slightly from our data, if they occured in-between our weather recording intervals... More about our weather records

Advertising

Peterborough weather history for previous 24 hours

 ConditionsComfort  
Time TempWeatherWind HumidityBarometerVisibility
9:00 AM
Sep 20
61 °FPartly sunny.8 mph88%30.01 "Hg9 mi
8:58 AM61 °FPartly sunny.8 mph88%30.01 "Hg9 mi
8:00 AM54 °FOvercast.2 mph100%30.01 "Hg9 mi
7:00 AM45 °FPartly cloudy.2 mph93%30.03 "Hg9 mi
6:00 AM43 °FOvercast.No wind100%30.04 "Hg9 mi
5:00 AM41 °FPassing clouds.No wind100%30.04 "Hg8 mi
4:00 AM39 °FPassing clouds.2 mph100%30.05 "Hg9 mi
3:00 AM39 °FClear.No wind100%30.07 "Hg9 mi
2:00 AM39 °FPassing clouds.2 mph100%30.08 "Hg9 mi
1:00 AM39 °FPassing clouds.2 mph100%30.09 "Hg8 mi
12:00 AM37 °FClear.3 mph100%30.11 "Hg9 mi
11:00 PM
Sep 19
41 °FClear.No wind93%30.14 "Hg9 mi
10:00 PM41 °FClear.No wind100%30.16 "Hg9 mi
9:00 PM41 °FClear.No wind100%30.19 "Hg9 mi
8:00 PM45 °FSunny.No wind87%30.20 "Hg9 mi
7:00 PM50 °FSunny.5 mph71%30.23 "Hg9 mi
6:00 PM54 °FSunny.7 mph63%30.26 "Hg9 mi
5:00 PM55 °FSunny.7 mph59%30.27 "Hg9 mi
4:00 PM55 °FSunny.9 mph59%30.27 "Hg9 mi
3:00 PM55 °FSunny.7 mph59%30.30 "Hg9 mi
2:00 PM55 °FPartly sunny.9 mph63%30.32 "Hg9 mi
Weather by CustomWeather, © 2014

See weather overviewHow to use our weather pages